フォーブズ彗星

37P/Forbes (2011)

English version
Home page
Updated on June 11, 2016

---------------------------------------------------------------------

・ プロフィール

・ 写真集

・ 軌道要素

Epoch 2011 Dec. 25.0 TT = JDT 2455920.5
T 2011 Dec. 11.02101 TT                                 Kobayashi
q   1.5753136            (2000.0)            P               Q
n   0.15516889     Peri.  329.38797     +0.25339694     +0.96108583
a   3.4297801      Node   315.03094     -0.85301985     +0.16835767
e   0.5406955      Incl.    8.95585     -0.45623144     +0.21901993
P   6.35
From 695 observations 1993 Mar. 21-2012 Dec. 9, mean residual 0".8.
     Nongravitational parameters A1 = +0.67, A2 = -0.0330.

・ 星図

・ 光度変化

        m1 =   9.0 + 5 logΔ +  20 log r  [   ,284]  (              〜2012年 9月20日)
        m1 = -32   + 5 logΔ + 100 log r  [284,345]  (2012年 9月20日〜2012年11月20日)
        m1 =   9.0 + 5 logΔ +  20 log r  [345,   ]  (2012年11月20日〜              )

---------------------------------------------------------------------

軌道要素はM.P.E.C. 2015-M77に掲載されたものです。
星図はステラナビゲータ Ver.8 (アストロアーツ) で作成したものです。
光度グラフはComet for Windowsで作成したものです。

---------------------------------------------------------------------

Copyright(C) Seiichi Yoshida (comet@aerith.net). All rights reserved.